JST461 YBNA-YSSY

Flight info

Callsign JST461
Flight time 0h 58m
Altitude 36000
Route BNA W494 IDNER H98 SANAD H91 IGDAM H652 BOREE
Aircraft A320/M-SDE3FGHIRWY/LB1

Departure

Time 2026-05-09 04:45
Airport Ballina Byron Gateway Airport (YBNA)

Arrival

Time 2026-05-09 05:43
Airport Sydney Kingsford Smith International Airport (YSSY)
Time Latitude Longitude Altitude Speed Heading
2026-05-09 04:42 -28.83539 153.55675 20 ft 0 kts 342°
2026-05-09 04:42 -28.83532 153.55673 20 ft 2 kts 343°
2026-05-09 04:42 -28.83501 153.55662 20 ft 6 kts 343°
2026-05-09 04:43 -28.83463 153.55627 20 ft 8 kts 288°
2026-05-09 04:43 -28.83473 153.55557 20 ft 9 kts 253°
2026-05-09 04:43 -28.83495 153.55478 20 ft 12 kts 252°
2026-05-09 04:43 -28.83533 153.55331 19 ft 23 kts 253°
2026-05-09 04:44 -28.83574 153.55219 16 ft 9 kts 232°
2026-05-09 04:44 -28.83568 153.55206 16 ft 6 kts 59°
2026-05-09 04:44 -28.83549 153.55273 18 ft 23 kts 73°
2026-05-09 04:44 -28.83431 153.55730 20 ft 94 kts 73°
2026-05-09 04:45 -28.83187 153.56659 38 ft 147 kts 76°
2026-05-09 04:45 -28.82893 153.57811 505 ft 153 kts 79°
2026-05-09 04:45 -28.82531 153.58945 1098 ft 157 kts 56°
2026-05-09 04:45 -28.81597 153.59599 1647 ft 167 kts 10°
2026-05-09 04:46 -28.80431 153.59346 1975 ft 186 kts 326°
2026-05-09 04:46 -28.79552 153.58195 2391 ft 202 kts 297°
2026-05-09 04:46 -28.78906 153.56699 2779 ft 224 kts 292°
2026-05-09 04:46 -28.78500 153.54927 3278 ft 241 kts 265°
2026-05-09 04:47 -28.78787 153.53006 3840 ft 256 kts 253°
2026-05-09 04:47 -28.79263 153.50995 4488 ft 270 kts 253°
2026-05-09 04:47 -28.79727 153.48950 5395 ft 273 kts 254°
2026-05-09 04:47 -28.80161 153.46851 6362 ft 273 kts 255°
2026-05-09 04:48 -28.80565 153.44756 7257 ft 275 kts 256°
2026-05-09 04:48 -28.80954 153.42636 8096 ft 278 kts 256°
2026-05-09 04:48 -28.81342 153.40469 8922 ft 282 kts 257°
2026-05-09 04:48 -28.81724 153.38289 9710 ft 285 kts 257°
2026-05-09 04:49 -28.82111 153.36070 10467 ft 288 kts 257°
2026-05-09 04:49 -28.82501 153.33812 11003 ft 299 kts 258°
2026-05-09 04:49 -28.82913 153.31413 11344 ft 316 kts 258°
2026-05-09 04:49 -28.83344 153.28897 11746 ft 330 kts 258°
2026-05-09 04:50 -28.83784 153.26318 12391 ft 335 kts 258°
2026-05-09 04:50 -28.84230 153.23708 13052 ft 338 kts 258°
2026-05-09 04:50 -28.84680 153.21077 13716 ft 340 kts 259°
2026-05-09 04:50 -28.85127 153.18453 14368 ft 343 kts 259°
2026-05-09 04:51 -28.85584 153.15771 15021 ft 346 kts 259°
2026-05-09 04:51 -28.86039 153.13092 15636 ft 348 kts 259°
2026-05-09 04:51 -28.86498 153.10391 16255 ft 351 kts 259°
2026-05-09 04:51 -28.86990 153.07652 16839 ft 354 kts 255°
2026-05-09 04:52 -28.88061 153.05110 17338 ft 360 kts 233°
2026-05-09 04:52 -28.89885 153.03198 17878 ft 365 kts 213°
2026-05-09 04:52 -28.92116 153.01773 18469 ft 367 kts 210°
2026-05-09 04:52 -28.94381 153.00375 19050 ft 369 kts 210°
2026-05-09 04:53 -28.96635 152.98973 19618 ft 371 kts 210°
2026-05-09 04:53 -28.98878 152.97571 20179 ft 373 kts 210°
2026-05-09 04:53 -29.01179 152.96123 20734 ft 374 kts 210°
2026-05-09 04:53 -29.03436 152.94696 21242 ft 377 kts 210°
2026-05-09 04:54 -29.05629 152.93308 21716 ft 379 kts 211°
2026-05-09 04:54 -29.07940 152.91843 22210 ft 382 kts 211°
2026-05-09 04:54 -29.10256 152.90372 22675 ft 384 kts 211°
2026-05-09 04:54 -29.12599 152.88882 23158 ft 386 kts 211°
2026-05-09 04:55 -29.14947 152.87390 23615 ft 388 kts 211°
2026-05-09 04:55 -29.17309 152.85889 24060 ft 390 kts 211°
2026-05-09 04:55 -29.19717 152.84357 24504 ft 392 kts 211°
2026-05-09 04:55 -29.22094 152.82843 24928 ft 393 kts 212°
2026-05-09 04:56 -29.24485 152.81317 25312 ft 396 kts 212°
2026-05-09 04:56 -29.26897 152.79779 25703 ft 398 kts 212°
2026-05-09 04:56 -29.29306 152.78242 26109 ft 400 kts 212°
2026-05-09 04:56 -29.31758 152.76677 26501 ft 402 kts 212°
2026-05-09 04:57 -29.34181 152.75127 26872 ft 404 kts 212°
2026-05-09 04:57 -29.36654 152.73546 27234 ft 406 kts 212°
2026-05-09 04:57 -29.39130 152.71962 27586 ft 408 kts 213°
2026-05-09 04:57 -29.41602 152.70380 27920 ft 410 kts 213°
2026-05-09 04:58 -29.44081 152.68790 28246 ft 413 kts 213°
2026-05-09 04:58 -29.46605 152.67172 28589 ft 414 kts 213°
2026-05-09 04:58 -29.49121 152.65561 28905 ft 416 kts 213°
2026-05-09 04:58 -29.51663 152.63930 29219 ft 418 kts 213°
2026-05-09 04:59 -29.54240 152.62277 29541 ft 420 kts 213°
2026-05-09 04:59 -29.56792 152.60635 29833 ft 423 kts 213°
2026-05-09 04:59 -29.59358 152.58984 30097 ft 425 kts 213°
2026-05-09 04:59 -29.61965 152.57310 30358 ft 426 kts 213°
2026-05-09 05:00 -29.64558 152.55681 30637 ft 429 kts 210°
2026-05-09 05:00 -29.67351 152.54405 30926 ft 433 kts 204°
2026-05-09 05:00 -29.70205 152.53278 31206 ft 435 kts 204°
2026-05-09 05:00 -29.73097 152.52151 31457 ft 436 kts 204°
2026-05-09 05:01 -29.75948 152.51035 31741 ft 436 kts 204°
2026-05-09 05:01 -29.78813 152.49902 32077 ft 434 kts 205°
2026-05-09 05:01 -29.81694 152.48752 32420 ft 432 kts 205°
2026-05-09 05:01 -29.84529 152.47610 32744 ft 430 kts 205°
2026-05-09 05:02 -29.87327 152.46481 33077 ft 428 kts 205°
2026-05-09 05:02 -29.90125 152.45346 33419 ft 425 kts 206°
2026-05-09 05:02 -29.92907 152.44218 33743 ft 424 kts 206°
2026-05-09 05:02 -29.95704 152.43079 34003 ft 424 kts 206°
2026-05-09 05:03 -29.98489 152.41942 34291 ft 423 kts 206°
2026-05-09 05:03 -30.01241 152.40819 34631 ft 421 kts 206°
2026-05-09 05:03 -30.04034 152.39679 34861 ft 422 kts 207°
2026-05-09 05:03 -30.06810 152.38544 35009 ft 424 kts 206°
2026-05-09 05:04 -30.09584 152.37407 35237 ft 425 kts 207°
2026-05-09 05:04 -30.12407 152.36255 35465 ft 424 kts 207°
2026-05-09 05:04 -30.15197 152.35115 35661 ft 425 kts 207°
2026-05-09 05:04 -30.17986 152.33971 35881 ft 425 kts 207°
2026-05-09 05:05 -30.20776 152.32828 36072 ft 426 kts 207°
2026-05-09 05:05 -30.23581 152.31676 36236 ft 428 kts 207°
2026-05-09 05:05 -30.26402 152.30519 36246 ft 428 kts 207°
2026-05-09 05:06 -30.32000 152.28224 36253 ft 429 kts 207°
2026-05-09 05:06 -30.37648 152.25900 36262 ft 428 kts 207°
2026-05-09 05:07 -30.43305 152.23572 36263 ft 429 kts 206°
2026-05-09 05:07 -30.48960 152.21245 36255 ft 430 kts 206°
2026-05-09 05:08 -30.54597 152.18922 36256 ft 429 kts 206°
2026-05-09 05:08 -30.60249 152.16588 36268 ft 431 kts 206°
2026-05-09 05:09 -30.65866 152.14264 36270 ft 431 kts 206°
2026-05-09 05:09 -30.71532 152.11920 36251 ft 431 kts 206°
2026-05-09 05:10 -30.77190 152.09578 36262 ft 431 kts 206°
2026-05-09 05:10 -30.82845 152.07230 36251 ft 432 kts 205°
2026-05-09 05:11 -30.88474 152.04895 36253 ft 432 kts 205°
2026-05-09 05:11 -30.94130 152.02539 36250 ft 433 kts 205°
2026-05-09 05:12 -30.99812 152.00172 36262 ft 433 kts 205°
2026-05-09 05:12 -31.05497 151.97800 36247 ft 434 kts 205°
2026-05-09 05:13 -31.11219 151.95413 36245 ft 434 kts 205°
2026-05-09 05:13 -31.16911 151.93034 36253 ft 435 kts 205°
2026-05-09 05:14 -31.22608 151.90648 36258 ft 436 kts 204°
2026-05-09 05:14 -31.28325 151.88254 36253 ft 437 kts 204°
2026-05-09 05:15 -31.34034 151.85857 36248 ft 437 kts 204°
2026-05-09 05:15 -31.39769 151.83446 36256 ft 438 kts 204°
2026-05-09 05:16 -31.45515 151.81029 36259 ft 438 kts 204°
2026-05-09 05:16 -31.51255 151.78609 36253 ft 439 kts 204°
2026-05-09 05:17 -31.56986 151.76192 36253 ft 440 kts 203°
2026-05-09 05:17 -31.62742 151.73759 36248 ft 439 kts 203°
2026-05-09 05:18 -31.68491 151.71327 36248 ft 441 kts 203°
2026-05-09 05:18 -31.74278 151.68877 36247 ft 441 kts 202°
2026-05-09 05:19 -31.80077 151.66419 36246 ft 442 kts 202°
2026-05-09 05:19 -31.85830 151.63976 36247 ft 442 kts 202°
2026-05-09 05:20 -31.91622 151.61514 36250 ft 441 kts 202°
2026-05-09 05:20 -31.97394 151.59059 36250 ft 441 kts 202°
2026-05-09 05:21 -32.03173 151.56592 36248 ft 442 kts 202°
2026-05-09 05:21 -32.08965 151.54118 36252 ft 442 kts 202°
2026-05-09 05:21 -32.11865 151.52879 36131 ft 443 kts 202°
2026-05-09 05:22 -32.14778 151.51633 35624 ft 444 kts 201°
2026-05-09 05:22 -32.17701 151.50378 34867 ft 446 kts 201°
2026-05-09 05:22 -32.20613 151.49129 34092 ft 448 kts 201°
2026-05-09 05:22 -32.23515 151.47884 33340 ft 449 kts 200°
2026-05-09 05:23 -32.26456 151.46619 32606 ft 450 kts 200°
2026-05-09 05:23 -32.29397 151.45357 31895 ft 450 kts 200°
2026-05-09 05:23 -32.32350 151.44087 31149 ft 451 kts 199°
2026-05-09 05:23 -32.35283 151.42825 30623 ft 446 kts 199°
2026-05-09 05:24 -32.38171 151.41586 30132 ft 441 kts 199°
2026-05-09 05:24 -32.41029 151.40359 29627 ft 436 kts 199°
2026-05-09 05:24 -32.43856 151.39145 29141 ft 430 kts 198°
2026-05-09 05:24 -32.46658 151.37941 28649 ft 426 kts 198°
2026-05-09 05:25 -32.49439 151.36743 28168 ft 421 kts 199°
2026-05-09 05:25 -32.52169 151.35565 27679 ft 416 kts 198°
2026-05-09 05:25 -32.57569 151.33235 26658 ft 409 kts 199°
2026-05-09 05:26 -32.60210 151.32095 26175 ft 405 kts 199°
2026-05-09 05:26 -32.62853 151.30951 25689 ft 401 kts 199°
2026-05-09 05:26 -32.65438 151.29833 25234 ft 396 kts 199°
2026-05-09 05:26 -32.68031 151.28711 24771 ft 392 kts 199°
2026-05-09 05:27 -32.70560 151.27615 24321 ft 388 kts 199°
2026-05-09 05:27 -32.73102 151.26514 23864 ft 384 kts 199°
2026-05-09 05:27 -32.75591 151.25433 23388 ft 381 kts 199°
2026-05-09 05:27 -32.78069 151.24358 22920 ft 378 kts 199°
2026-05-09 05:28 -32.80545 151.23283 22433 ft 376 kts 200°
2026-05-09 05:28 -32.82983 151.22224 21944 ft 375 kts 200°
2026-05-09 05:28 -32.85437 151.21158 21481 ft 372 kts 200°
2026-05-09 05:28 -32.87859 151.20105 21030 ft 370 kts 200°
2026-05-09 05:29 -32.90252 151.19063 20573 ft 368 kts 200°
2026-05-09 05:29 -32.92647 151.18019 20099 ft 367 kts 201°
2026-05-09 05:29 -32.95050 151.16971 19624 ft 366 kts 201°
2026-05-09 05:29 -32.97449 151.15924 19144 ft 364 kts 201°
2026-05-09 05:30 -32.99796 151.14900 18673 ft 363 kts 201°
2026-05-09 05:30 -33.02163 151.13867 18201 ft 362 kts 201°
2026-05-09 05:30 -33.04519 151.12837 17735 ft 360 kts 202°
2026-05-09 05:30 -33.06876 151.11803 17277 ft 358 kts 201°
2026-05-09 05:31 -33.09208 151.10780 16826 ft 356 kts 201°
2026-05-09 05:31 -33.11536 151.09760 16371 ft 355 kts 201°
2026-05-09 05:31 -33.13847 151.08746 15926 ft 352 kts 201°
2026-05-09 05:31 -33.16123 151.07747 15493 ft 350 kts 201°
2026-05-09 05:32 -33.18421 151.06740 15043 ft 348 kts 201°
2026-05-09 05:32 -33.20676 151.05749 14592 ft 346 kts 200°
2026-05-09 05:32 -33.22991 151.04929 14133 ft 345 kts 190°
2026-05-09 05:32 -33.25363 151.04753 13682 ft 344 kts 177°
2026-05-09 05:33 -33.27710 151.05104 13227 ft 342 kts 172°
2026-05-09 05:33 -33.30073 151.05574 12777 ft 341 kts 171°
2026-05-09 05:33 -33.32398 151.06045 12344 ft 339 kts 171°
2026-05-09 05:33 -33.34723 151.06506 11875 ft 338 kts 171°
2026-05-09 05:34 -33.37043 151.06957 11428 ft 336 kts 171°
2026-05-09 05:34 -33.39357 151.07402 10982 ft 335 kts 171°
2026-05-09 05:34 -33.41647 151.07843 10528 ft 334 kts 171°
2026-05-09 05:34 -33.43918 151.08279 10297 ft 325 kts 172°
2026-05-09 05:35 -33.46110 151.08701 10144 ft 313 kts 172°
2026-05-09 05:35 -33.48235 151.09111 9999 ft 303 kts 172°
2026-05-09 05:35 -33.50285 151.09506 9963 ft 289 kts 172°
2026-05-09 05:35 -33.52248 151.09885 9950 ft 283 kts 172°
2026-05-09 05:36 -33.54174 151.10255 9867 ft 279 kts 172°
2026-05-09 05:36 -33.56079 151.10622 9497 ft 280 kts 172°
2026-05-09 05:36 -33.57990 151.10989 9022 ft 276 kts 172°
2026-05-09 05:36 -33.59880 151.11354 8374 ft 274 kts 172°
2026-05-09 05:37 -33.61768 151.11717 7816 ft 275 kts 171°
2026-05-09 05:37 -33.63654 151.12088 7353 ft 278 kts 171°
2026-05-09 05:37 -33.65579 151.12470 7018 ft 276 kts 171°
2026-05-09 05:37 -33.67457 151.12842 6765 ft 272 kts 171°
2026-05-09 05:38 -33.69287 151.13190 6384 ft 263 kts 175°
2026-05-09 05:38 -33.71078 151.13135 5866 ft 256 kts 186°
2026-05-09 05:38 -33.72866 151.13156 5225 ft 256 kts 173°
2026-05-09 05:38 -33.74617 151.13515 4569 ft 256 kts 168°
2026-05-09 05:39 -33.76349 151.13971 3893 ft 257 kts 167°
2026-05-09 05:39 -33.78042 151.14432 3382 ft 239 kts 167°
2026-05-09 05:39 -33.79602 151.14848 3055 ft 225 kts 167°
2026-05-09 05:39 -33.81111 151.15240 2761 ft 217 kts 168°
2026-05-09 05:40 -33.82563 151.15616 2470 ft 206 kts 167°
2026-05-09 05:40 -33.83897 151.15961 2279 ft 188 kts 167°
2026-05-09 05:40 -33.85136 151.16281 2040 ft 178 kts 166°
2026-05-09 05:40 -33.86320 151.16588 1807 ft 169 kts 166°
2026-05-09 05:41 -33.87454 151.16882 1562 ft 160 kts 166°
2026-05-09 05:41 -33.88505 151.17156 1349 ft 149 kts 166°
2026-05-09 05:41 -33.89471 151.17406 1136 ft 137 kts 166°
2026-05-09 05:41 -33.90381 151.17642 895 ft 128 kts 167°
2026-05-09 05:42 -33.91235 151.17848 742 ft 124 kts 168°
2026-05-09 05:42 -33.92085 151.18059 623 ft 124 kts 167°
2026-05-09 05:42 -33.92933 151.18289 482 ft 124 kts 166°
2026-05-09 05:42 -33.93769 151.18517 320 ft 124 kts 167°
2026-05-09 05:43 -33.94619 151.18735 161 ft 123 kts 167°
2026-05-09 05:43 -33.95446 151.18955 35 ft 119 kts 167°
2026-05-09 05:43 -33.96156 151.19141 28 ft 82 kts 167°
2026-05-09 05:43 -33.96504 151.19218 28 ft 41 kts 178°
2026-05-09 05:44 -33.96669 151.19186 28 ft 17 kts 198°
2026-05-09 05:44 -33.96688 151.19083 28 ft 16 kts 328°
2026-05-09 05:44 -33.96571 151.19049 28 ft 17 kts 348°
2026-05-09 05:44 -33.96449 151.19016 28 ft 18 kts 348°
2026-05-09 05:45 -33.96321 151.18983 28 ft 19 kts 348°
2026-05-09 05:45 -33.96190 151.18950 28 ft 19 kts 347°
2026-05-09 05:45 -33.96054 151.18912 28 ft 20 kts 348°
2026-05-09 05:45 -33.95915 151.18878 28 ft 20 kts 348°
2026-05-09 05:46 -33.95774 151.18842 28 ft 20 kts 348°
2026-05-09 05:46 -33.95631 151.18803 28 ft 21 kts 347°
2026-05-09 05:46 -33.95484 151.18767 28 ft 21 kts 348°
2026-05-09 05:46 -33.95336 151.18727 28 ft 21 kts 346°
2026-05-09 05:47 -33.95205 151.18645 28 ft 21 kts 319°
2026-05-09 05:47 -33.95111 151.18504 28 ft 21 kts 282°
2026-05-09 05:47 -33.95134 151.18326 28 ft 21 kts 256°
2026-05-09 05:47 -33.95159 151.18196 28 ft 3 kts 261°
2026-05-09 05:48 -33.95159 151.18193 28 ft 0 kts 261°
2026-05-09 05:48 -33.95162 151.18178 28 ft 10 kts 261°
2026-05-09 05:48 -33.95183 151.18045 28 ft 20 kts 259°
2026-05-09 05:48 -33.95071 151.17937 28 ft 26 kts 348°
2026-05-09 05:49 -33.94887 151.17891 28 ft 26 kts 348°
2026-05-09 05:49 -33.94715 151.17845 28 ft 22 kts 347°
2026-05-09 05:49 -33.94562 151.17806 28 ft 22 kts 348°
2026-05-09 05:49 -33.94413 151.17763 28 ft 22 kts 344°
2026-05-09 05:50 -33.94262 151.17714 28 ft 21 kts 345°
2026-05-09 05:50 -33.94124 151.17670 28 ft 19 kts 346°
2026-05-09 05:50 -33.93989 151.17633 28 ft 20 kts 348°
2026-05-09 05:50 -33.93850 151.17600 28 ft 20 kts 349°
2026-05-09 05:51 -33.93708 151.17563 28 ft 20 kts 348°
2026-05-09 05:51 -33.93565 151.17526 28 ft 20 kts 349°
2026-05-09 05:51 -33.93462 151.17535 28 ft 11 kts 65°
2026-05-09 05:51 -33.93417 151.17598 28 ft 8 kts 21°
2026-05-09 05:52 -33.93404 151.17656 28 ft 7 kts 102°
2026-05-09 05:52 -33.93408 151.17682 28 ft 0 kts 100°
2026-05-09 05:52 -33.93409 151.17691 28 ft 2 kts 99°
2026-05-09 05:52 -33.93412 151.17709 28 ft 0 kts 99°
2026-05-09 05:53 -33.93412 151.17711 28 ft 0 kts 99°